Location: Austin
(30.3000°N, 97.7500°W)
Time: 22:55:29
(UTC-05:00)

ATLAS 3B R/B - Pass Details

Date: 06 May 2026
Orbit: 937 x 1257 km, 63.8° (Epoch: 13 May)

Event Time Altitude Azimuth Distance (km) Brightness Sun altitude
Rises 23:04:12 0° 333° (NNW) 4,162 6.8 -31.6°
Reaches altitude 10° 23:07:04 10° 335° (NNW) 3,164 6.0 -32.0°
Enters shadow 23:14:15 71° 34° (NNE) 1,217 2.9 -33.0°
